Location: Newark
(30.1000°N, 109.4667°E)
Time: 14:54:41
(UTC+00:00)

Vanguard 2 Rocket - Pass Details

Date: 25 February 2020
Orbit: 554 x 3326 km, 32.9° (Epoch: 08 April)

Event Time Altitude Azimuth Distance (km) Brightness Sun altitude
Rises 10:55:58 0° 241° (WSW) 7,152 13.0 -4.7°
Reaches altitude 10° 11:00:38 10° 240° (WSW) 6,239 12.5 -5.7°
Maximum altitude 11:21:11 78° 158° (SSE) 3,066 9.5 -10.2°
Enters shadow 11:35:00 14° 75° (ENE) 4,515 9.8 -13.1°
